Location: Dover
(48.8500°N, 53.9833°W)
Time: 16:15:20
(UTC+00:00)

Timation 1 Rocket - Pass Details

Date: 14 November 2025
Orbit: 898 x 905 km, 70.0° (Epoch: 12 December)

Event Time Altitude Azimuth Distance (km) Brightness Sun altitude
Rises 21:48:32 0° 329° (NNW) 3,528 7.7 -18.3°
Reaches altitude 10° 21:51:02 10° 329° (NNW) 2,584 7.0 -18.8°
Maximum altitude 21:57:02 88° 242° (WSW) 908 4.3 -19.7°
Drops below altitude 10° 22:03:00 10° 153° (SSE) 2,572 6.5 -20.7°
Enters shadow 22:05:07 - 153° (SSE) 3,378 7.1 -21.1°
